Retour au catalogue

SAC-D

AQUARIUS

ActifScienceSSO
NORAD 37673·PAYLOAD·🇦🇷 Argentina

Lancé Jun 10, 2011 depuis Vandenberg Space Force Base

Loading…

Prochains Passages (prochaines 24 heures)

TLE

FraisSource: Space-Track

Époque: Sep 14, 2026, 00:10 UTC

1 37673U 11024A   26257.00750414  .00000548  00000-0  81730-4 0  9997
2 37673  97.9775 270.1647 0001462 113.1053 275.8783 14.78749330820912

Suivez SAC-D en temps réel avec AllMySat

Download on the App Store